Weather History for Myrtle Beach, SC

Change the Weather History Date:

Sunday, September 30, 2012

  Actual Average Record
Temperature  
Mean Temperature 68 °F -  
Max Temperature 71 °F 76 °F 86 °F (1997)
Min Temperature 64 °F 60 °F 48 °F (2003)
Cooling Degree Days 2    
Growing Degree Days 18 (Base 50)    
Moisture  
Dew Point 61 °F    
Average Humidity 78    
Maximum Humidity 88    
Minimum Humidity 69    
Precipitation  
Precipitation 0.00 in - - ()
Sea Level Pressure  
Sea Level Pressure 29.87 in    
Wind  
Wind Speed 5 mph (North)    
Max Wind Speed 12 mph    
Max Gust Speed -    
Visibility 9 miles    
Events      
Averages and records for this station are not official NWS values.
T = Trace of Precipitation, MM = Missing Value Source: NWS Daily Summary

Daily Weather History Graph

Daily Weather History Graph

Search for Another Location

Airport:

Trip Planner

Search our weather history database for the weather conditions in past years. The results will help you decide how hot, cold, wet, or windy it might be!

Date:

Astronomy

Sep. 30, 2012 Rise Set
Actual Time 7:09 AM EDT 7:00 PM EDT
Civil Twilight 6:44 AM EDT 7:25 PM EDT
Nautical Twilight 6:15 AM EDT 7:54 PM EDT
Astronomical Twilight 5:46 AM EDT 8:23 PM EDT
Moon 7:08 PM EDT 7:34 AM EDT
Length of Visible Light 12h 40m
Length of Day
11h 51m
Full, 100% of the Moon is Illuminated
Sep 30
Full
Oct 8
Last Quarter
Oct 15
New
Oct 21
First Quarter
Oct 29
Full

Hourly Weather History & Observations

Time (EDT) Temp. Dew Point Humidity Pressure Visibility Wind Dir Wind Speed Gust Speed Precip Events Conditions
12:15 AM 69.8 °F 60.8 °F 73% 29.88 in 10.0 mi WNW 4.6 mph - N/A   Clear
12:35 AM 69.8 °F 60.8 °F 73% 29.88 in 10.0 mi WSW 4.6 mph - N/A   Mostly Cloudy
12:55 AM 69.8 °F 60.8 °F 73% 29.86 in 10.0 mi SSW 6.9 mph - N/A   Overcast
1:15 AM 69.8 °F 60.8 °F 73% 29.86 in 10.0 mi Calm Calm - N/A   Mostly Cloudy
1:35 AM 68.0 °F 60.8 °F 78% 29.86 in 10.0 mi Calm Calm - N/A   Partly Cloudy
1:55 AM 66.2 °F 59.0 °F 78% 29.86 in 10.0 mi WSW 3.5 mph - N/A   Clear
2:15 AM 66.2 °F 57.2 °F 73% 29.87 in 10.0 mi West 3.5 mph - N/A   Clear
2:35 AM 66.2 °F 57.2 °F 73% 29.88 in 10.0 mi NNW 4.6 mph - N/A   Clear
2:55 AM 66.2 °F 59.0 °F 78% 29.88 in 10.0 mi NNW 6.9 mph - N/A   Partly Cloudy
3:15 AM 66.2 °F 57.2 °F 73% 29.87 in 10.0 mi NNW 5.8 mph - N/A   Partly Cloudy
3:35 AM 66.2 °F 59.0 °F 78% 29.87 in 10.0 mi Calm Calm - N/A   Partly Cloudy
3:55 AM 66.2 °F 59.0 °F 78% 29.87 in 10.0 mi Calm Calm - N/A   Partly Cloudy
4:15 AM 66.2 °F 59.0 °F 78% 29.86 in 10.0 mi Calm Calm - N/A   Clear
4:35 AM 66.2 °F 60.8 °F 83% 29.87 in 10.0 mi Calm Calm - N/A   Partly Cloudy
4:55 AM 66.2 °F 60.8 °F 83% 29.86 in 9.0 mi Calm Calm - N/A   Partly Cloudy
5:15 AM 66.2 °F 59.0 °F 78% 29.86 in 7.0 mi Calm Calm - N/A   Clear
5:35 AM 64.4 °F 57.2 °F 77% 29.86 in 5.0 mi Calm Calm - N/A   Clear
5:50 AM 64.4 °F 59.0 °F 83% 29.86 in 7.0 mi North 5.8 mph - N/A   Mostly Cloudy
5:55 AM 64.4 °F 59.0 °F 83% 29.86 in 7.0 mi NNW 4.6 mph - N/A   Mostly Cloudy
6:45 AM 66.2 °F 59.0 °F 78% 29.86 in 5.0 mi North 5.8 mph - N/A   Mostly Cloudy
7:10 AM 66.2 °F 60.8 °F 83% 29.86 in 5.0 mi North 5.8 mph - N/A   Scattered Clouds
7:30 AM 66.2 °F 60.8 °F 83% 29.86 in 5.0 mi NNE 8.1 mph - N/A   Overcast
7:50 AM 66.2 °F 62.6 °F 88% 29.87 in 3.0 mi NE 11.5 mph - N/A   Overcast
8:45 AM 68.0 °F 62.6 °F 83% 29.89 in 7.0 mi NE 11.5 mph - N/A   Overcast
9:50 AM 68.0 °F 62.6 °F 83% 29.91 in 7.0 mi NNE 10.4 mph - N/A   Overcast
10:50 AM 68.0 °F 60.8 °F 78% 29.92 in 10.0 mi NNE 9.2 mph - N/A   Overcast
11:45 AM 68.0 °F 62.6 °F 83% 29.92 in 10.0 mi NNE 10.4 mph - N/A   Overcast
12:45 PM 69.8 °F 62.6 °F 78% 29.91 in 10.0 mi SSE 9.2 mph - N/A   Overcast
1:50 PM 71.6 °F 62.6 °F 73% 29.89 in 10.0 mi ENE 6.9 mph - N/A   Overcast
2:50 PM 71.6 °F 62.6 °F 73% 29.88 in 10.0 mi ENE 6.9 mph - N/A   Overcast
3:50 PM 71.6 °F 62.6 °F 73% 29.86 in 10.0 mi NNE 8.1 mph - N/A   Overcast
4:50 PM 71.6 °F 60.8 °F 69% 29.86 in 10.0 mi NNE 6.9 mph - N/A   Overcast
5:45 PM 69.8 °F 62.6 °F 78% 29.86 in 10.0 mi North 6.9 mph - N/A   Overcast
7:45 PM 69.8 °F 62.6 °F 78% 29.88 in 10.0 mi NNE 8.1 mph - N/A   Mostly Cloudy
8:45 PM 68.0 °F 62.6 °F 83% 29.88 in 8.0 mi NE 5.8 mph - N/A   Overcast
11:15 PM 68.0 °F 62.6 °F 83% 29.88 in 9.0 mi NE 4.6 mph - N/A   Overcast
11:35 PM 69.8 °F 62.6 °F 78% 29.88 in 8.0 mi NE 4.6 mph - N/A   Overcast
11:55 PM 69.8 °F 62.6 °F 78% 29.87 in 8.0 mi North 6.9 mph - N/A   Overcast